TimeCDT,TemperatureF,Dew PointF,Humidity,Sea Level PressureIn,VisibilityMPH,Wind Direction,Wind SpeedMPH,Gust SpeedMPH,PrecipitationIn,Events,Conditions,WindDirDegrees,DateUTC
12:53 AM,53.1,42.1,66,30.09,10.0,Calm,Calm,-,N/A,,Partly Cloudy,0,2013-04-22 05:53:00
1:53 AM,51.1,42.1,71,30.08,10.0,SE,3.5,-,N/A,,Mostly Cloudy,130,2013-04-22 06:53:00
2:53 AM,52.0,43.0,71,30.07,10.0,NNW,8.1,-,N/A,,Overcast,340,2013-04-22 07:53:00
3:53 AM,54.0,42.1,64,30.08,10.0,Calm,Calm,-,N/A,,Overcast,0,2013-04-22 08:53:00
4:53 AM,53.1,42.1,66,30.06,10.0,SSE,6.9,-,N/A,,Overcast,150,2013-04-22 09:53:00
5:53 AM,52.0,41.0,66,30.06,10.0,South,6.9,-,0.00,,Overcast,170,2013-04-22 10:53:00
6:53 AM,48.0,41.0,77,30.06,10.0,SSE,4.6,-,N/A,,Clear,160,2013-04-22 11:53:00
7:53 AM,51.1,39.9,66,30.06,10.0,South,8.1,-,N/A,,Clear,170,2013-04-22 12:53:00
8:53 AM,52.0,41.0,66,30.06,10.0,South,10.4,18.4,N/A,,Scattered Clouds,190,2013-04-22 13:53:00
9:53 AM,54.0,42.1,64,30.05,10.0,South,9.2,-,N/A,,Overcast,180,2013-04-22 14:53:00
10:53 AM,57.0,42.1,57,30.03,10.0,South,13.8,-,N/A,,Overcast,170,2013-04-22 15:53:00
11:53 AM,61.0,42.1,50,30.00,10.0,South,17.3,24.2,N/A,,Clear,170,2013-04-22 16:53:00
12:53 PM,66.0,43.0,43,29.97,10.0,South,16.1,26.5,N/A,,Partly Cloudy,170,2013-04-22 17:53:00
1:53 PM,62.1,42.1,48,29.94,10.0,South,15.0,-,N/A,,Overcast,190,2013-04-22 18:53:00
2:53 PM,59.0,46.0,62,29.94,10.0,South,10.4,-,0.00,Rain,Light Rain,170,2013-04-22 19:53:00
3:53 PM,57.9,45.0,62,29.94,10.0,SSE,9.2,-,0.00,Rain,Light Rain,160,2013-04-22 20:53:00
4:53 PM,53.1,50.0,89,29.99,3.0,WNW,12.7,-,0.13,Rain,Rain,290,2013-04-22 21:53:00
5:06 PM,53.6,51.8,94,29.97,2.5,WNW,10.4,-,0.05,Rain,Rain,300,2013-04-22 22:06:00
5:13 PM,51.8,51.8,100,29.98,4.0,WNW,9.2,-,0.06,Rain,Rain,300,2013-04-22 22:13:00
5:53 PM,52.0,52.0,100,29.99,4.0,NNW,9.2,-,0.13,Rain,Rain,330,2013-04-22 22:53:00
6:03 PM,51.8,51.8,100,29.99,2.5,NW,9.2,-,0.03,Rain,Rain,320,2013-04-22 23:03:00
6:19 PM,51.8,51.8,100,30.00,2.5,NW,8.1,-,0.08,Rain,Rain,320,2013-04-22 23:19:00
6:32 PM,51.8,51.8,100,29.99,2.5,NNW,5.8,-,0.12,Rain,Rain,330,2013-04-22 23:32:00
6:40 PM,51.8,51.8,100,29.99,4.0,NNW,9.2,-,0.14,Rain,Rain,340,2013-04-22 23:40:00
6:53 PM,50.0,50.0,100,30.01,5.0,NNW,17.3,23.0,0.16,Rain,Light Rain,340,2013-04-22 23:53:00
7:53 PM,42.1,41.0,96,30.03,10.0,NNW,15.0,25.3,0.02,Rain,Light Rain,340,2013-04-23 00:53:00
8:53 PM,39.9,39.0,97,30.07,7.0,North,16.1,25.3,0.01,Rain,Light Rain,350,2013-04-23 01:53:00
9:10 PM,39.2,39.2,100,30.07,9.0,NNW,12.7,25.3,0.01,Rain,Light Rain,340,2013-04-23 02:10:00
9:21 PM,39.2,39.2,100,30.08,9.0,NNW,18.4,25.3,0.01,Rain,Light Rain,340,2013-04-23 02:21:00
9:53 PM,37.9,37.0,97,30.13,10.0,NNW,16.1,26.5,0.02,Rain,Light Rain,330,2013-04-23 02:53:00
10:53 PM,37.0,35.1,93,30.09,10.0,North,15.0,21.9,0.00,,Overcast,350,2013-04-23 03:53:00
11:34 PM,37.4,35.6,93,30.11,10.0,NNW,19.6,27.6,N/A,,Overcast,340,2013-04-23 04:34:00
11:53 PM,37.0,34.0,89,30.14,10.0,NNW,15.0,26.5,N/A,,Overcast,330,2013-04-23 04:53:00